Date,TemperatureHighF,TemperatureAvgF,TemperatureLowF,DewpointHighF,DewpointAvgF,DewpointLowF,HumidityHigh,HumidityAvg,HumidityLow,PressureMaxIn,PressureMinIn,WindSpeedMaxMPH,WindSpeedAvgMPH,GustSpeedMaxMPH,PrecipitationSumIn
2013-3-1,71.1,60.6,46.9,46.7,40.3,31.1,88,49,30,29.77,29.66,12,5,18,0.00
2013-3-2,61.3,51.6,40.6,41.7,34.9,26.8,81,55,29,29.80,29.72,20,5,27,0.05
2013-3-3,56.5,44.8,33.4,36.9,31.7,28.0,83,62,38,29.93,29.75,21,5,30,0.09
2013-3-4,68.2,49.2,30.9,37.7,27.1,15.6,89,51,14,30.00,29.88,9,2,13,0.00
2013-3-5,78.3,58.9,37.8,56.7,43.4,34.4,92,62,27,29.94,29.79,15,4,18,0.00
2013-3-6,69.3,59.7,45.0,61.7,38.6,15.6,91,53,14,29.90,29.71,21,7,28,0.09
2013-3-7,70.2,53.0,39.0,45.2,37.5,32.0,86,59,31,29.98,29.87,12,2,17,0.00
2013-3-8,77.4,57.7,38.8,50.9,40.2,28.3,95,61,17,29.99,29.88,9,2,11,0.00
2013-3-9,76.8,60.3,42.4,53.9,47.5,40.8,94,66,36,30.00,29.90,9,2,14,0.00
2013-3-10,78.8,65.8,53.2,58.8,53.3,50.4,93,67,40,29.95,29.84,13,4,21,0.00
2013-3-11,78.8,68.1,53.8,59.8,55.9,50.9,92,67,44,29.89,29.67,19,5,27,0.00
2013-3-12,72.0,66.8,56.3,66.9,61.6,53.3,94,84,70,29.79,29.65,14,6,21,0.20
2013-3-13,76.8,61.5,48.9,53.2,41.3,26.3,94,56,16,30.03,29.67,11,3,17,0.09
2013-3-14,69.6,56.4,45.5,44.2,33.6,20.4,83,48,18,30.11,30.00,11,3,17,0.00
2013-3-15,72.9,55.2,37.0,47.6,36.0,25.1,94,57,20,30.14,30.00,9,2,12,0.00
2013-3-16,80.1,58.9,40.3,49.5,41.9,35.6,93,57,22,30.05,29.90,11,2,17,0.00
2013-3-17,79.5,65.3,45.5,58.3,49.0,41.9,93,57,40,30.05,29.85,14,3,17,0.00
2013-3-18,79.3,70.4,61.2,65.5,61.8,57.5,90,75,55,29.92,29.73,17,4,23,0.00
2013-3-19,87.6,72.4,61.9,67.8,62.5,59.5,96,75,40,29.86,29.74,9,2,11,0.09
2013-3-20,77.0,69.3,60.6,67.6,62.7,56.1,93,80,56,29.82,29.65,13,3,18,0.02
2013-3-21,74.1,61.2,49.5,57.8,40.0,18.5,96,55,13,29.83,29.72,8,2,13,0.00
2013-3-22,78.8,60.1,41.7,64.1,49.0,36.3,93,71,30,29.87,29.74,11,2,15,0.08
2013-3-23,88.7,74.2,63.1,72.6,65.8,60.7,96,77,45,29.84,29.63,18,4,25,0.01
2013-3-24,83.7,74.3,66.2,73.8,68.7,61.0,93,83,61,29.71,29.48,21,6,29,0.70
2013-3-25,75.6,65.6,50.4,67.8,43.6,16.8,91,53,13,29.89,29.58,14,6,21,0.00
2013-3-26,61.7,53.1,44.2,42.7,30.0,18.0,73,44,20,30.08,29.88,21,6,27,0.04
2013-3-27,65.8,50.7,35.2,36.9,30.9,21.0,88,52,20,30.16,30.04,12,3,16,0.00
2013-3-28,73.4,54.9,34.9,46.1,31.7,16.1,93,53,12,30.14,30.03,10,2,12,0.00
2013-3-29,75.4,58.6,40.6,52.5,37.9,26.3,93,55,18,30.18,30.04,10,2,14,0.00
2013-3-30,71.2,57.3,44.2,53.5,46.6,40.8,91,70,49,30.11,30.06,12,2,14,0.00
2013-3-31,83.3,70.0,57.0,56.9,52.8,47.6,83,57,32,30.03,29.85,22,3,37,0.06